www.pogodaiklimat.ru

Погода и климат >> Архив погоды >> Канада >> Нунавут >> Кембридж Бэй


ПОГОДА в Кембридж Бэй

  • Прогноз погоды в Кембридж Бэй
  • Монитор погоды в Кембридж Бэй

АРХИВ ПОГОДЫ в Кембридж Бэй

Время (UTC), дата Ветер
(напр.,м/с)
 
Видим.   Явления Облачность Т
(С)
Тd
(С)
f
(%)
Тe
(С)
Тes
(С)
Комфортность P
(гПа)
Po
(гПа)
Тmin
(С)
Tmax
(С)
R
(мм)
R24
(мм)
S
(см)
06 10.07 С 5 9000 м слаб. дождь 10/10 50 м
[Frnb]
+7.1 +6.5 96 +3 +3 1009.0 1005.0 +5.3 +10.7 0.7 71
09 10.07 С 5 1000 м 9/9 50 м
[]
+6.6 +6.0 96 +2 +2 1008.6 1004.6
12 10.07 С 4 12 км в посл. час дождь 10/10 50 м
[Frnb]
+6.9 +6.3 96 +3 +3 1008.1 1004.1 +6.4 +10.7 5
15 10.07 С 3 12 км 10/10 100 м
[]
+7.7 +6.8 94 +5 +5 1007.1 1003.1
18 10.07 С 3 24 км осадки на расстоянии 10/10 100 м
[Sc]
+9.4 +6.9 84 +7 +7 1006.2 1002.2 +6.4 +9.4
21 10.07 СЗ 5 24 км 10/10 50 м
[]
+9.8 +6.2 78 +7 +7 1005.3 1001.3
00 11.07 З 6 19 км слаб. ливневой дождь 9/9 100 м
[Cu Sc]
+7.6 +6.4 92 +3 +4 1004.1 1000.1 +6.4 +10.8 0.0
03 11.07 СЗ 5 24 км 10/10 200 м
[]
+9.2 +7.3 88 +6 +6 1002.8 998.9
06 11.07 З 4 24 км {ливн. осадки} 10/8 200 м
[Cu Sc Ac trans]
+7.3 +6.3 93 +4 +4 1001.7 997.8 +5.9 +10.8 0.0
09 11.07 З 4 24 км 10/10 200 м
[]
+5.3 +4.5 95 +1 +1 1000.5 996.6
12 11.07 З 4 24 км 10/9 200 м
[Cu Sc Ac As]
+5.5 +4.8 95 +2 +2 999.3 995.4 +4.3 +10.8
15 11.07 З 4 24 км 10/10 200 м
[]
+6.6 +5.1 90 +3 +3 997.7 993.8
18 11.07 З 5 24 км 10/4 600 м
[Sc Ac lent]
+8.5 +6.0 84 +5 +5 996.8 992.9 +4.3 +8.6
21 11.07 З 6 24 км 10/10 600 м
[]
+8.9 +5.2 78 +5 +5 996.4 992.5
00 12.07 З 5 24 км осадки на расстоянии 10/1 300 м
[Sc Ac As]
+8.5 +5.6 82 +5 +5 995.8 991.9 +4.3 +12.1
03 12.07 З 5 24 км 10/10 300 м
[]
+6.1 +5.1 93 +2 +2 995.1 991.2
06 12.07 СЗ 5 6000 м слаб. дождь 10/10 100 м
[Sc]
+7.0 +6.1 94 +3 +3 994.9 991.0 +4.3 +12.1 0.4 210
09 12.07 СЗ 4 16 км 10/10 100 м
[]
+6.9 +6.2 95 +3 +3 994.8 990.9
12 12.07 СЗ 5 4000 м дымка {дождь} 10/10 50 м
[St]
+6.7 +6.1 96 +3 +3 994.8 990.9 +5.2 +12.1 0.4
15 12.07 СЗ 5 24 км 9/9 100 м
[]
+8.4 +6.3 87 +5 +5 995.1 991.2
18 12.07 СЗ 7 24 км {дождь} 10/10 300 м
[Sc]
+9.4 +7.3 87 +5 +5 995.4 991.5 +5.2 +9.5 1
21 12.07 СЗ 8 24 км 9/9 200 м
[]
+9.8 +7.3 84 +6 +6 995.9 992.0
00 13.07 СЗ 8 24 км {дождь} 9/9 300 м
[Sc]
+10.4 +7.2 81 +6 +7 996.4 992.5 +6.6 +11.2 0.7
03 13.07 СЗ 7 24 км 9/9 300 м
[]
+8.7 +6.7 87 +4 +4 997.0 993.1
06 13.07 СЗ 7 24 км осадки на расстоянии 10/10 200 м
[Cu Sc]
+7.1 +5.6 90 +2 +2 997.3 993.4 +6.6 +11.2 11
09 13.07 СЗ 7 12 км 10/10 50 м
[]
+6.2 +5.4 95 +1 +1 997.2 993.3
12 13.07 СЗ 6 6000 м слаб. дождь 10/10 50 м
[Cu Sc]
+6.2 +5.5 95 +1 +1 997.6 993.7 +6.0 +11.2 0.6
15 13.07 СЗ 7 12 км 10/10 50 м
[]
+7.0 +6.1 94 +2 +2 998.4 994.5
18 13.07 С 7 16 км слаб. дождь 10/10 200 м
[Sc]
+7.8 +6.1 89 +3 +3 999.2 995.3 +6.0 +8.1 0.3
21 13.07 С 5 19 км 10/10 200 м
[]
+9.4 +6.5 82 +6 +6 1000.3 996.4
00 14.07 С 5 24 км {дождь} 10/10 200 м
[Sc]
+9.7 +6.9 83 +7 +7 1001.0 997.1 +6.0 +10.5
03 14.07 С 4 24 км 10/10 300 м
[]
+8.7 +6.8 88 +5 +5 1002.0 998.1
06 14.07 СЗ 4 24 км {дождь} 10/10 300 м
[Sc]
+8.2 +6.5 89 +5 +5 1002.7 998.8 +6.0 +10.5 0.0 91
09 14.07 З 3 24 км 10/10 300 м
[]
+6.1 +5.1 93 +3 +3 1003.5 999.5
12 14.07 СЗ 5 24 км 9/5 300 м
[Sc Ac As]
+7.5 +6.2 91 +4 +4 1004.0 1000.1 +5.3 +10.5
15 14.07 0 24 км 9/9 100 м
[]
+8.2 +6.7 90 1004.3 1000.4
18 14.07 З 4 9000 м дымка 10/10 100 м
[Sc]
+6.8 +5.4 91 +3 +3 1004.4 1000.4
21 14.07 ЮЗ 4 24 км 9/9 300 м
[]
+6.2 +4.0 86 +2 +3 1004.5 1000.5
00 15.07 З 8 24 км 9/6 600 м
[Cu Sc Ac trans]
+5.8 +3.1 83 0 +1 1004.2 1000.2
03 15.07 ЮЗ 3 24 км 9/9 200 м
[]
+4.0 +2.6 91 0 0 1003.9 999.9
06 15.07 ЮЗ 4 6000 м слаб. дождь 10/10 50 м
[Frnb]
+3.2 +2.4 94 -1 -1 1003.2 999.2 0.0 1
09 15.07 З 5 2000 м 9/9 50 м
[]
+3.0 +2.5 97 -3 -3 1002.7 998.7
12 15.07 З 5 12 км туман на расстоянии {дождь} 9/9 <50 м
[Sc]
+2.8 +2.3 97 -3 -3 1002.6 998.6 +2.6 3
15 15.07 З 4 16 км 9/9 200 м
[]
+4.8 +4.2 96 0 +1 1002.6 998.6
18 15.07 СЗ 6 24 км 10/6 200 м
[Sc Ac As]
+10.1 +5.9 75 +7 +7 1003.0 999.0 +2.6 +11.2
21 15.07 СЗ 6 24 км 9/9 600 м
[]
+11.1 +4.8 65 +8 +9 1003.6 999.6
00 16.07 СЗ 5 24 км 9/9 600 м
[Sc]
+11.5 +5.4 66 +9 +9 1003.9 999.9 +2.6 +11.8
03 16.07 З 3 24 км 9/9 600 м
[]
+8.6 +5.1 79 +6 +6 1004.3 1000.3
06 16.07 ЮЗ 2 24 км 9/1 1000 м
[Sc Ac As Ci fib]
+5.5 +3.4 86 +3 +3 1003.1 999.2 +2.6 +11.8 18
09 16.07 Ю 3 9000 м 10/10 1500 м
[]
+5.4 +4.3 93 +2 +2 1002.0 998.1
12 16.07 Ю 5 6000 м слаб. дождь 10/9 1000 м
[Sc Ac trans]
+6.1 +5.4 95 +2 +2 999.9 996.0 +4.7 +11.8 3
15 16.07 Ю 7 9000 м 10/10 300 м
[]
+6.8 +6.2 96 +2 +2 997.4 993.5
18 16.07 400 м слаб. дождь н/о +5.7 +5.2 97 +3 +3 995.9 992.0 +4.7 +7.1 12
21 16.07 СЗ 9 24 км 10/10 200 м
[]
+9.0 +7.8 92 +4 +4 996.5 992.6
00 17.07 СЗ 8 24 км {дождь} 10/10 600 м
[Sc]
+9.2 +4.9 74 +5 +5 997.5 993.6 +4.7 +11.2 0.7
03 17.07 З 6 24 км 10/10 600 м
[]
+6.9 +4.2 83 +2 +2 997.9 994.0

 

Местоположение метеостанции Кембридж Бэй (Нунавут, Канада): широта 69.10 долгота -105.10 высота над уровнем моря 27 м.

В архиве по умолчанию представлена погода в Кембридж Бэй за последнюю неделю. Архивные данные за месяц целиком и за предыдущие месяцы, начиная с января 2011 года, Вы можете получить, выбрав интересующий диапазон дат из раскрывающегося списка и нажав кнопку "Ввод!".


*Определитесь, кто Вы:
робот инопланетянин человек

Внимание! Время в таблицах - всемирное. Для получения местного времени необходимо прибавить поправку, которая равна -7 ч.

Смотрите также архив погоды в соседних городах и на ближайших метеорологических станциях:

Погода на Мысе Пил-Вест (Нунавут, Канада) (108 км)
Погода на Острове Хат (Нунавут, Канада) (223 км)
Погода в Джойа Хейвен (Нунавут, Канада) (374 км)
Погода в Куглуктуке (Нунавут, Канада) (432 км)
Погода в Куглуктуке (Северо-Западные территории, Канада) (432 км)
Погода в Люпине (Нунавут, Канада) (452 км)
Погода в Саскатуне (Саскачеван, Канада) (452 км)
Погода в Талойоаке (Нунавут, Канада) (454 км)
Погода на Озере Робертсон (Нунавут, Канада) (460 км)
Погода в Шеперд-Бее (Нунавут, Канада) (466 км)

Пояснения к столбцам:

Ветер - указаны скорость ветра в м/с - средняя за 10 мин, порывы в срок и между сроками (в фигурных скобках) и направление, откуда дует ветер: С - северный, СВ - северо-восточный, В - восточный, ЮВ - юго-восточный, Ю - южный, ЮЗ - юго-западный, З - западный, СЗ - северо-западный.
Видимость - горизонтальная дальность видимости в метрах или километрах. При видимости от 1 до 10 км при отсутствии осадков обычно наблюдается дымка, при ухудшении видимости до 1 км и менее - туман. В сухую погоду видимость может ухудшаться дымом, пылью или мглою.
Явления - указаны атмосферные явления, наблюдавшиеся в срок или в последний час перед сроком; фигурными скобками обозначены явления, наблюдавшиеся между сроками (за 1-3 часа до срока); квадратными скобками обозначены град или гололедные отложения с указанием их диаметра в мм.
Облачность - указаны через наклонную черту общая и нижняя облачность в баллах и высота нижней границы облаков в метрах; квадратными скобками обозначены формы облаков: Ci - перистые, Cs - перисто-слоистые, Cc - перисто-кучевые, Ac - высококучевые, As - высокослоистые, Sc - слоисто-кучевые, Ns - слоисто-дождевые, Cu - кучевые, Cb - кучево-дождевые. Подробнее классификацию облаков см. в Атласе облаков (PDF).
T - Температура воздуха - температура, измеренная на высоте 2 м над землей.
Td - Температура точки росы - температура, при понижении до которой содержащийся в воздухе водяной пар достигнет насыщения.
f - Относительная влажность воздуха - влажноcть воздуха, измеренная на высоте 2 м над землей.
Te - Эффективная температура - температура, которую ощущает одетый по сезону человек в тени. Характеристика душности погоды. При расчете учитывается влияние влажности воздуха и скорости ветра на теплоощущения человека.
Tes - Эффективная температура на солнце - температура, которую ощущает человек, с поправкой на солнечный нагрев. Характеристика знойности погоды. Зависит от высоты солнца над горизонтом, облачности и скорости ветра. Ночью, в пасмурную погоду, а также при ветре 12 м/с и более поправка равна нулю.
P - Атмосферное давление - приведенное к уровню моря атмосферное давление.
Po - Атмосферное давление - измеренное на уровне метеостанции атмосферное давление.
Tmin - Минимальная температура - минимум температуры воздуха на высоте 2 м над землей.
Tmax - Максимальная температура - максимум температуры воздуха на высоте 2 м над землей.
R - Количество осадков - Количество выпавших осадков за период времени, мм. При наведении курсора мыши на число - период времени, за который выпало указанное количество осадков.
R24 - Количество осадков - Количество выпавших осадков за 24 часа, мм.
S - Снежный покров - Высота снежного покрова, см. При наведении курсора мыши на число - состояние снежного покрова и степень покрытия местности в баллах.